Content
SEND FEEDBACK

Daily
Averages
Monthly
Summary
Germany

KIEL, GERMANY


Home > Europe > Germany
Elevation: 102 feet     Latitude: 54 23N     Longitude: 010 09E

WEATHER
 
SELECT A DAY
Number of Records: 19,651;   Date Range: 10/24/98 - 8/29/14
 
SHARE

PRINT THIS DATA

[ ← Previous Day ]
WEATHER ALMANAC - FEBRUARY 13, 2013
[ Next Day → ]
[ °C ]   °F
Weather ElementAverageHighLow
Temperature28.8 °F32 °F (12:20 pm)26.6 °F (3:20 am)
Dewpoint24.6 °F26.6 °F (10:20 am)23 °F (3:20 pm)
Humidity84.7 %93 % (3:20 am)69 % (3:20 pm)
Barometer30.26 in30.33 in (5:20 pm)30.12 in (1:20 am)
Wind Speed3.1 mph6.9 mph (3:20 am)
Weather ElementAverage
Visibility6 mi
Wind DirectionS (180.9 °)

Weather ElementTotal
Precipitation---
Heating Degree Days35.7 (Base 65)
Averaged from 23 records on February 13, 2013
WEATHER CONDITIONS BREAKOUT
WIND DIRECTION BREAKOUT
WEATHER BY HOUR - FEBRUARY 13, 2013
[ °C ]   °F
Local TimeTemperatureDewpointHumidityBarometerVisibilityWind DirectionWind SpeedGust SpeedPrecipitationEventsConditions
1:20 AM28.4 °F24.8 °F86 %30.12 in6.2 miNorth (10°)3.5 mphMostly Cloudy
2:20 AM28.4 °F24.8 °F86 %30.15 in6.2 miNNW (340°)3.5 mphMostly Cloudy
3:20 AM26.6 °F24.8 °F93 %30.15 in6.2 miWNW (300°)6.9 mphMostly Cloudy
4:20 AM26.6 °F24.8 °F93 %30.18 in6.2 miNorth (350°)3.5 mphMostly Cloudy
5:20 AM26.6 °F24.8 °F93 %30.18 in6.2 miNorth (350°)3.5 mphMostly Cloudy
6:20 AM26.6 °F24.8 °F93 %30.18 in6.2 miNE (40°)3.5 mphMostly Cloudy
7:20 AM26.6 °F24.8 °F93 %30.21 in6.2 miWNW (300°)3.5 mphMostly Cloudy
8:20 AM26.6 °F24.8 °F93 %30.24 in6.2 miWNW (300°)4.6 mphMostly Cloudy
9:20 AM28.4 °F24.8 °F86 %30.24 in6.2 miWNW (300°)2.3 mphMostly Cloudy
10:20 AM28.4 °F26.6 °F93 %30.27 in6.2 miWNW (300°)3.5 mphMostly Cloudy
11:20 AM30.2 °F26.6 °F86 %30.27 in6.2 miVariable2.3 mphMostly Cloudy
12:20 PM32.0 °F24.8 °F75 %30.30 in6.2 miNorth (350°)4.6 mphMostly Cloudy
1:20 PM32.0 °F24.8 °F75 %30.30 in6.2 miVariable2.3 mphMostly Cloudy
2:20 PM32.0 °F24.8 °F75 %30.30 in6.2 miWSW (240°)3.5 mphMostly Cloudy
3:20 PM32.0 °F23.0 °F69 %30.30 in6.2 miSSW (200°)3.5 mphMostly Cloudy
4:20 PM32.0 °F23.0 °F69 %30.30 in6.2 miESE (120°)2.3 mphMostly Cloudy
5:20 PM28.4 °F23.0 °F80 %30.33 in6.2 miCalmMostly Cloudy
6:20 PM28.4 °F23.0 °F80 %30.33 in5.6 miVariable1.2 mphMostly Cloudy
7:20 PM28.4 °F23.0 °F80 %30.33 in5.6 miESE (120°)2.3 mphMostly Cloudy
8:20 PM28.4 °F24.8 °F86 %30.33 in5.6 miSE (140°)2.3 mphMostly Cloudy
9:20 PM28.4 °F24.8 °F86 %30.33 in5.6 miSE (130°)2.3 mphMostly Cloudy
10:20 PM28.4 °F24.8 °F86 %30.33 in5.6 miSE (140°)2.3 mphMostly Cloudy
11:20 PM28.4 °F26.6 °F93 %30.33 in5.6 miSE (130°)3.5 mphMostly Cloudy
Hourly data recorded from EDHK, located miles away from Kiel, Germany







STORIES FROM OUR PARTNERS